Hourly Data Report for October 04, 2017

All times are specified in Local Standard Time (LST). Add 1 hour to adjust for Daylight Saving Time where and when it is observed.

SACHS HARBOUR CLIMATE
NORTHWEST TERRITORIES

71°59'33.000" N
125°15'15.000" W
87.50 m
2503648
71467
WSY

Download Data

Hourly Data (October 2017)
Hourly Data Report for October 4, 2017
Temp Definition
°C
Dew Point Temp Definition
°C
Rel Hum Definition
%
Wind Dir Definition
10's deg

Wind Spd Definition
km/h
Visibility Definition
km
Stn Press Definition
kPa
Hmdx Definition


Wind Chill Definition


Weather Definition


TIME
00:00 -13.7 -14.7 92 5 21   101.25   -23 LegendNANA
01:00 -14.1 -15.2 92 5 28   101.21   -25 LegendNANA
02:00 -14.7 -15.8 91 5 27   101.28   -25 LegendNANA
03:00 -15.1 -16.1 92 5 28   101.30   -26 LegendNANA
04:00 -15.0 -16.0 91 6 32   101.33   -26 LegendNANA
05:00 -13.9 -14.7 93 6 31   101.30   -25 LegendNANA
06:00 -13.5 -14.4 93 6 27   101.31   -24 LegendNANA
07:00 -13.3 -14.2 93 6 27   101.33   -23 LegendNANA
08:00 -13.2 -14.1 93 7 28   101.30   -23 LegendNANA
09:00 -12.5 -13.4 93 7 28   101.32   -22 LegendNANA
10:00 -12.1 -13.0 93 7 25   101.29   -21 LegendNANA
11:00 -12.2 -13.1 93 7 20   101.28   -21 LegendNANA
12:00 -12.0 -12.9 93 7 18   101.27   -20 LegendNANA
13:00 -10.7 -12.0 90 8 12   101.25   -17 LegendNANA
14:00 -10.8 -12.1 91 8 14   101.23   -17 LegendNANA
15:00 -10.3 -11.7 89 7 17   101.16   -18 LegendNANA
16:00 -6.8 -9.1 84 10 11   101.11   -12 LegendNANA
17:00 -7.3 -8.4 91 11 12   101.12   -13 LegendNANA
18:00 -6.8 -8.9 85 11 15   101.07   -13 LegendNANA
19:00 -7.0 -8.4 90 10 20   100.98   -14 LegendNANA
20:00 -7.8 -9.3 89 10 20   100.91   -15 LegendNANA
21:00 -7.8 -11.3 76 10 19   100.85   -15 LegendNANA
22:00 -7.3 -11.7 71 10 20   100.79   -14 LegendNANA
23:00 -7.3 -11.3 73 11 19   100.70   -14 LegendNANA

Notes on Data Quality.

Legend

  • E = Estimated
  • M = Missing
  • NA = Not Available
  • ‡ = Partner data that is not subject to review by the National Climate Archives
Date modified: